Location: Wells
(51.2093°N, 2.6446°W)
Time: 07:41:52
(UTC+01:00)

SO-50 - Pass Details

Date: 21 March 2026
Orbit: 567 x 673 km, 64.6° (Epoch: 17 April)

Event Time Altitude Azimuth Distance (km) Brightness Sun altitude
Rises 20:04:18 0° 288° (WNW) 2,997 ? -15.9°
Reaches altitude 10° 20:07:20 10° 309° (NW) 2,099 ? -16.4°
Maximum altitude 20:10:32 18° 351° (N) 1,663 ? -16.8°
Drops below altitude 10° 20:13:46 10° 33° (NNE) 2,115 ? -17.3°
Enters shadow 20:15:45 - 47° (NE) 2,681 ? -17.6°
